Weather in Chkalovsk

Russia / Nizhny Novgorod Oblast'     56°45′58″N   43°15′03″E
temp.,
°C
wind,
m/s
gust,
m/s
humid.,
%
clouds,
%
prec.,
mm/h
press.,
hPa
HPBL,
m
25 may, wed
wed2500:00+3nnw57895 0.1 1010294
03:00+1nw569316 0.1 1011243
06:00+3nw458630 0.0 1011271
09:00+7nw566627 0.0 10111056
12:00+9wnw885997 0.1 10111404
15:00+7nw7986100 1.1 10121128
18:00+7nw478599 1.0 1012738
21:00+7w478783 1.2 1012414
26 may, thu
thu2600:00+5w458844 0.0 1011174
03:00+4sw4585100 0.0 1011159
06:00+6wsw51082100 0.0 1010350
09:00+6sw5789100 0.3 1009837
12:00+8wsw457753 0.3 1009805
15:00+10sw457097 0.5 1008851
18:00+11s12696 0.0 1006376
21:00+9ese5781100 0.0 1004128
27 may, fri
fri2700:00+8ese6988100 0.0 1002245
03:00+8ese4697100 0.2 999170
06:00+9ene5997100 1.8 996288
09:00+9ene5897100 3.8 994403
12:00+9nne5797100 3.8 995323
15:00+9nnw5797100 7.1 997338
18:00+10nw4691100 0.9 999415
21:00+10w3794100 1.3 1000203
28 may, sat
sat2800:00+10sw4796100 0.8 1000208
03:00+8sw5109565 0.8 1000299
06:00+8ssw479394 0.0 999239
09:00+9ssw61093100 1.0 999599
12:00+9sse3493100 2.9 999236
15:00+10wsw6118919 3.7 1000654
18:00+12wsw813783 0.6 1002651
21:00+9ssw4983100 0.7 1004205
29 may, sun
sun2900:00+8sw714875 0.1 1006632
03:00+8sw7138817 0.1 1007677
06:00+8sw813835 0.0 1009672
09:00+11sw7107199 0.0 1010795
12:00+13sw7116379 0.4 1011778
15:00+15wsw5956100 0.9 1012806
18:00+13wsw477191 0.8 1014161
21:00+11ssw45834 0.9 101656